Погода в Таловке

Россия / Волгоградская область     49°58′39″N   45°02′07″E
темп.,
°C
ветер,
м/с
пор.,
м/с
влажн.,
%
обл.,
%
осадки,
мм/ч
давл.,
гПа
погр.,
м
19 мая, ср
ср1900:00+16юз479211 0.0 1009159
03:00+14зюз349711 0.0 1010103
06:00+16з23850 0.0 1011169
09:00+21с225834 0.0 1011633
12:00+26вюв3537100 0.0 10101205
15:00+27ююв6937100 0.0 10091777
18:00+20зюз111467100 0.3 1009618
21:00+15з71280100 1.6 1010356
20 мая, чт
чт2000:00+14зюз4987100 0.4 1012366
03:00+13ююз239068 0.4 101257
06:00+13ююз468770 0.0 1012357
09:00+17юз566440 0.0 10121189
12:00+18юз796257 0.9 10121380
15:00+19юз8115788 1.6 10121743
18:00+17юз610716 1.1 1013853
21:00+14юз49835 1.1 1014191
21 мая, пт
пт2100:00+13юз48885 0.0 1015153
03:00+12юз36905 0.0 1016104
06:00+14юз2477100 0.0 1017113
09:00+20ю4654100 0.0 1018826
12:00+24ю454634 0.0 10171359
15:00+25ююз4641100 0.0 10171632
18:00+23в475134 0.0 1016193
21:00+20в485599 0.0 1016142
22 мая, сб
сб2200:00+19в5115791 0.0 1016244
03:00+17вюв47615 0.0 101689
06:00+18в6145695 0.0 1015333
09:00+24юв91540100 0.0 1015814
12:00+29ююв1013295 0.0 10141577
15:00+31ююв81229100 0.0 10132076
18:00+28юв4840100 0.0 1012160
21:00+23юв51144100 0.0 1013168
23 мая, вс
вс2300:00+23юв51132100 0.0 1013170
03:00+20вюв473413 0.0 101384
06:00+20в512505 0.0 1013250
09:00+27вюв8123852 0.0 1012595
12:00+31вюв9112827 0.0 10111205
15:00+34юв8132315 0.0 10092509
18:00+31ююв917255 0.0 1007614
21:00+28ююв102024100 0.0 1009691